�N����,����,�~����,�C��,���x,�C��,����,���ϕ���,�ő�u�ԕ���,�ő厞����,���˗�,�I�_���x,�n�����x,�ő啗���N��,DTYPE
"17/06/24","00:10",0.0,21.5,80.3,1000.5,293.3,1.1,1.6,323.2,0.00,18.0,23.5,"00:02:24",1
"17/06/24","00:20",0.0,21.4,80.7,1000.8,291.1,1.0,1.3,304.7,0.00,18.0,23.3,"00:18:24",1
"17/06/24","00:30",0.0,21.2,81.8,1000.8,317.6,1.2,2.0,335.7,0.00,18.0,23.2,"00:24:00",1
"17/06/24","00:40",0.0,21.0,82.2,1000.3,276.8,0.8,1.2,301.1,0.00,17.9,23.3,"00:33:44",1
"17/06/24","00:50",0.0,20.9,82.3,1000.5,296.6,1.0,1.4,311.4,0.00,17.8,23.2,"00:41:28",1
"17/06/24","01:00",0.0,20.7,82.8,1000.8,293.1,0.7,1.3,319.1,0.00,17.7,23.2,"00:58:48",1
"17/06/24","01:10",0.0,20.6,83.4,1000.8,309.6,1.0,1.4,303.4,0.00,17.7,23.1,"01:07:44",1
"17/06/24","01:20",0.0,20.6,84.7,1000.8,317.9,1.0,1.6,330.1,0.00,18.0,23.0,"01:14:48",1
"17/06/24","01:30",0.0,20.4,84.6,1000.8,298.3,1.0,1.6,315.5,0.00,17.8,22.9,"01:29:12",1
"17/06/24","01:40",0.0,20.4,84.4,1001.0,284.6,0.8,1.3,272.9,0.00,17.7,22.8,"01:38:48",1
"17/06/24","01:50",0.0,20.4,84.4,1001.2,298.4,1.0,1.4,318.1,0.00,17.7,22.9,"01:47:20",1
"17/06/24","02:00",0.0,20.4,84.4,1001.2,292.6,1.1,1.8,319.5,0.00,17.7,22.7,"01:53:12",1
"17/06/24","02:10",0.0,20.4,84.1,1001.0,288.9,1.0,1.6,299.5,0.00,17.7,22.6,"02:04:24",1
"17/06/24","02:20",0.0,20.3,84.9,1000.8,305.7,1.0,1.6,311.1,0.00,17.7,22.6,"02:14:24",1
"17/06/24","02:30",0.0,20.1,85.1,1001.0,306.0,1.1,1.7,321.6,0.00,17.6,22.8,"02:24:56",1
"17/06/24","02:40",0.0,19.9,85.7,1001.0,288.3,1.0,1.9,320.8,0.00,17.5,22.6,"02:36:08",1
"17/06/24","02:50",0.0,19.9,86.0,1000.8,288.7,1.1,1.8,317.4,0.00,17.5,22.6,"02:48:40",1
"17/06/24","03:00",0.0,19.9,86.1,1001.2,283.6,1.1,1.4,300.2,0.00,17.5,22.5,"02:50:08",1
"17/06/24","03:10",0.0,19.9,86.1,1000.8,280.5,1.0,1.3,270.6,0.00,17.5,22.4,"03:07:36",1
"17/06/24","03:20",0.0,19.8,86.2,1000.5,304.1,1.1,1.8,318.4,0.00,17.5,22.3,"03:13:20",1
"17/06/24","03:30",0.0,19.8,87.2,1000.8,324.9,1.2,1.7,325.6,0.00,17.7,22.4,"03:20:40",1
"17/06/24","03:40",0.0,19.5,87.7,1000.8,302.8,1.1,1.3,328.1,0.00,17.4,22.2,"03:30:32",1
"17/06/24","03:50",0.0,19.4,88.1,1000.8,280.2,1.0,1.6,267.5,0.00,17.4,22.2,"03:47:52",1
"17/06/24","04:00",0.0,19.4,88.2,1000.8,285.0,1.1,1.6,272.9,0.00,17.4,22.1,"03:56:08",1
"17/06/24","04:10",0.0,19.4,88.3,1001.0,294.6,1.1,2.1,315.3,0.00,17.5,22.2,"04:08:04",1
"17/06/24","04:20",0.0,19.5,88.6,1001.0,320.5,1.2,2.0,312.8,0.00,17.6,22.0,"04:14:08",1
"17/06/24","04:30",0.0,19.5,88.3,1001.2,285.2,1.1,1.9,323.1,0.00,17.6,22.1,"04:20:56",1
"17/06/24","04:40",0.0,19.4,88.3,1000.8,295.2,1.1,1.7,317.2,0.00,17.5,22.0,"04:35:44",1
"17/06/24","04:50",0.0,19.5,88.2,1001.2,277.8,1.0,1.2,301.4,0.00,17.5,22.0,"04:41:20",1
"17/06/24","05:00",0.0,19.5,88.1,1001.0,311.2,1.1,1.3,304.7,0.00,17.5,22.0,"04:50:40",1
"17/06/24","05:10",0.0,19.5,88.9,1001.5,324.3,1.3,2.0,319.3,0.00,17.7,21.9,"05:05:36",1
"17/06/24","05:20",0.0,19.4,89.2,1001.5,301.8,1.1,1.7,325.2,0.00,17.6,21.8,"05:11:12",1
"17/06/24","05:30",0.0,19.3,89.4,1001.7,299.0,1.1,1.6,316.3,0.00,17.6,21.8,"05:28:40",1
"17/06/24","05:40",0.0,19.3,89.5,1001.7,298.8,1.0,1.4,328.2,0.00,17.6,21.9,"05:30:24",1
"17/06/24","05:50",0.0,19.4,89.8,1001.7,282.3,0.8,1.1,282.7,0.01,17.7,21.8,"05:41:12",1
"17/06/24","06:00",0.0,19.6,89.9,1001.7,289.0,0.7,0.9,309.4,0.02,17.9,21.7,"05:50:40",1
"17/06/24","06:10",0.0,20.0,89.6,1001.7,322.7,1.6,2.1,333.5,0.03,18.3,21.8,"06:07:28",1
"17/06/24","06:20",0.0,20.2,89.8,1001.5,312.9,1.5,1.9,318.1,0.04,18.5,21.8,"06:13:20",1
"17/06/24","06:30",0.0,20.5,89.1,1001.2,311.6,1.3,2.0,329.0,0.04,18.7,21.8,"06:24:08",1
"17/06/24","06:40",0.0,20.8,87.5,1001.5,308.1,1.2,1.9,322.4,0.05,18.7,21.8,"06:39:12",1
"17/06/24","06:50",0.0,21.3,86.5,1001.5,311.4,1.2,1.7,335.9,0.06,19.0,21.7,"06:40:16",1
"17/06/24","07:00",0.0,21.8,85.4,1001.7,330.8,1.2,2.0,337.7,0.07,19.3,21.9,"06:56:00",1
"17/06/24","07:10",0.0,22.6,80.5,1001.2,317.5,1.0,1.8,336.8,0.10,19.1,21.9,"07:00:08",1
"17/06/24","07:20",0.0,23.4,79.8,1001.5,262.1,0.8,1.4,309.4,0.13,19.8,22.1,"07:13:36",1
"17/06/24","07:30",0.0,24.0,73.7,1001.5,242.3,0.3,1.3,235.8,0.15,19.1,22.3,"07:29:52",1
"17/06/24","07:40",0.0,24.4,74.0,1001.0,185.5,0.5,1.1,226.7,0.16,19.5,22.3,"07:30:32",1
"17/06/24","07:50",0.0,24.8,71.2,1001.2,197.4,0.5,2.1,232.4,0.17,19.3,22.4,"07:44:48",1
"17/06/24","08:00",0.0,25.2,71.3,1001.0,168.9,0.7,2.1,174.2,0.20,19.7,22.6,"07:59:04",1
"17/06/24","08:10",0.0,25.6,68.3,1001.0,191.0,0.7,2.2,107.2,0.26,19.4,22.7,"08:08:16",1
"17/06/24","08:20",0.0,25.8,67.3,1000.3,101.6,1.1,3.6,116.6,0.27,19.3,22.7,"08:11:12",1
"17/06/24","08:30",0.0,25.9,65.7,1000.0,109.3,1.2,3.7,127.3,0.26,19.0,23.1,"08:25:04",1
"17/06/24","08:40",0.0,26.3,63.8,1000.0,94.1,1.3,2.7,124.8,0.33,18.9,23.0,"08:36:08",1
"17/06/24","08:50",0.0,26.5,65.0,1000.0,110.3,1.2,3.5,101.0,0.32,19.4,23.2,"08:44:08",1
"17/06/24","09:00",0.0,26.5,63.0,999.8,110.2,1.3,3.6,168.8,0.35,18.9,23.3,"08:55:36",1
"17/06/24","09:10",0.0,26.9,65.3,999.1,103.1,1.2,4.4,55.8,0.36,19.9,23.6,"09:01:52",1
"17/06/24","09:20",0.0,27.2,61.6,998.9,136.9,1.5,2.7,140.3,0.39,19.2,23.7,"09:11:28",1
"17/06/24","09:30",0.0,27.5,62.8,998.9,137.2,1.5,3.2,86.0,0.41,19.8,23.8,"09:20:32",1
"17/06/24","09:40",0.0,27.4,61.1,998.6,121.9,1.3,3.1,120.4,0.41,19.3,24.1,"09:34:56",1
"17/06/24","09:50",0.0,28.0,59.9,999.1,100.1,0.8,2.2,113.6,0.42,19.5,24.1,"09:42:24",1
"17/06/24","10:00",0.0,27.8,58.7,999.1,51.4,1.3,3.3,56.9,0.42,19.0,24.4,"09:51:04",1
"17/06/24","10:10",0.0,27.9,59.9,998.9,134.9,1.3,3.1,170.3,0.42,19.4,24.7,"10:06:48",1
"17/06/24","10:20",0.0,27.8,59.2,999.1,150.4,2.0,4.2,137.3,0.45,19.2,25.0,"10:19:36",1
"17/06/24","10:30",0.0,28.2,59.2,998.9,129.5,1.6,3.6,4.7,0.45,19.5,25.0,"10:22:56",1
"17/06/24","10:40",0.0,28.4,60.5,999.1,136.2,1.7,3.6,149.6,0.44,20.1,25.2,"10:32:56",1
"17/06/24","10:50",0.0,28.6,60.1,999.3,144.7,1.5,3.1,186.0,0.43,20.1,25.3,"10:42:16",1
"17/06/24","11:00",0.0,28.4,57.7,998.9,132.7,1.3,2.7,108.8,0.43,19.3,25.4,"10:58:24",1
"17/06/24","11:10",0.0,28.6,57.2,998.4,130.6,1.3,2.5,85.5,0.45,19.3,25.7,"11:05:36",1
"17/06/24","11:20",0.0,28.8,58.3,998.9,146.7,1.2,4.1,141.1,0.41,19.8,25.9,"11:16:32",1
"17/06/24","11:30",0.0,29.2,58.9,998.9,114.7,1.3,4.1,27.1,0.44,20.4,26.0,"11:20:32",1
"17/06/24","11:40",0.0,29.6,54.5,999.3,119.5,1.5,3.1,104.3,0.56,19.5,26.1,"11:30:56",1
"17/06/24","11:50",0.0,30.0,53.8,999.1,117.0,1.2,3.1,114.9,0.59,19.7,26.4,"11:40:24",1
"17/06/24","12:00",0.0,29.6,53.6,999.1,85.0,1.2,4.1,120.2,0.48,19.2,26.5,"11:53:36",1
"17/06/24","12:10",0.0,29.9,53.8,999.3,105.9,1.5,3.6,157.6,0.53,19.6,26.7,"12:08:32",1
"17/06/24","12:20",0.0,30.2,52.3,999.1,80.9,1.0,2.9,43.5,0.46,19.4,27.0,"12:19:12",1
"17/06/24","12:30",0.0,29.7,53.9,998.9,96.5,1.2,2.5,38.6,0.43,19.4,26.9,"12:26:56",1
"17/06/24","12:40",0.0,29.8,54.6,998.9,68.2,1.2,3.3,57.2,0.39,19.7,27.1,"12:38:00",1
"17/06/24","12:50",0.0,29.0,56.9,998.4,115.8,1.1,3.1,140.9,0.25,19.6,27.2,"12:45:36",1
"17/06/24","13:00",0.0,29.2,53.6,998.4,90.2,1.0,2.2,119.4,0.26,18.9,27.0,"12:57:36",1
"17/06/24","13:10",0.0,28.9,55.7,998.2,117.9,1.1,2.6,147.6,0.25,19.2,27.1,"13:09:12",1
"17/06/24","13:20",0.0,29.0,54.5,997.9,97.0,1.1,2.2,115.6,0.23,18.9,27.1,"13:16:16",1
"17/06/24","13:30",0.0,29.0,55.7,998.2,88.3,1.2,2.4,122.7,0.25,19.3,27.0,"13:26:00",1
"17/06/24","13:40",0.0,29.7,53.9,997.7,94.1,0.8,2.5,97.9,0.32,19.4,26.9,"13:36:16",1
"17/06/24","13:50",0.0,30.2,51.8,997.7,80.1,1.3,3.7,21.0,0.49,19.2,27.1,"13:48:24",1
"17/06/24","14:00",0.0,29.8,52.5,997.9,92.6,1.3,3.4,121.2,0.40,19.1,27.0,"13:55:04",1
"17/06/24","14:10",0.0,30.6,50.6,997.9,127.2,1.2,3.1,141.3,0.50,19.2,27.1,"14:08:16",1
"17/06/24","14:20",0.0,30.9,52.3,997.4,134.2,0.8,2.1,126.8,0.41,20.0,27.2,"14:16:08",1
"17/06/24","14:30",0.0,30.4,50.5,997.7,82.0,1.0,2.0,40.1,0.37,19.0,27.3,"14:22:24",1
"17/06/24","14:40",0.0,30.3,53.3,998.2,92.8,0.7,2.2,32.4,0.34,19.8,27.2,"14:35:12",1
"17/06/24","14:50",0.0,30.4,53.2,998.4,294.2,0.6,1.7,5.6,0.30,19.8,27.4,"14:48:48",1
"17/06/24","15:00",0.0,29.5,51.7,997.7,37.0,1.0,2.2,32.5,0.19,18.6,27.3,"14:57:44",1
"17/06/24","15:10",0.0,30.0,50.7,997.9,19.7,0.8,2.0,351.8,0.28,18.7,27.4,"15:07:44",1
"17/06/24","15:20",0.0,31.0,49.4,997.9,40.7,0.7,2.4,22.8,0.36,19.2,27.4,"15:14:24",1
"17/06/24","15:30",0.0,31.0,47.1,997.9,20.1,0.7,1.8,31.0,0.32,18.4,27.4,"15:27:04",1
"17/06/24","15:40",0.0,29.7,54.0,997.9,152.2,1.1,2.6,128.1,0.23,19.4,27.4,"15:37:12",1
"17/06/24","15:50",0.0,29.9,51.5,997.4,116.1,1.0,1.9,104.7,0.21,18.9,27.4,"15:40:16",1
"17/06/24","16:00",0.0,29.3,51.8,997.4,88.4,0.8,1.7,95.3,0.14,18.4,27.4,"15:55:36",1
"17/06/24","16:10",0.0,29.3,54.5,997.0,26.4,1.0,2.5,27.5,0.13,19.2,27.4,"16:07:44",1
"17/06/24","16:20",0.0,29.2,52.6,996.5,50.7,1.0,2.2,11.4,0.12,18.6,27.3,"16:10:48",1
"17/06/24","16:30",0.0,29.0,54.0,996.3,61.3,0.7,2.0,359.5,0.10,18.8,27.2,"16:22:24",1
"17/06/24","16:40",0.0,28.9,55.1,996.0,61.5,1.0,1.9,45.8,0.10,19.0,27.2,"16:35:04",1
"17/06/24","16:50",0.0,28.8,55.2,995.8,108.3,0.8,1.8,127.4,0.11,19.0,27.1,"16:45:36",1
"17/06/24","17:00",0.0,28.9,52.5,995.6,67.6,0.7,1.8,81.9,0.09,18.3,27.2,"16:55:04",1
"17/06/24","17:10",0.0,29.0,52.0,995.6,30.4,0.8,2.0,357.7,0.08,18.2,26.9,"17:06:16",1
"17/06/24","17:20",0.0,28.7,55.0,995.1,82.4,0.8,1.8,115.5,0.05,18.8,26.9,"17:11:12",1
"17/06/24","17:30",0.0,28.4,54.9,995.8,41.8,0.7,1.7,61.9,0.03,18.5,26.7,"17:25:28",1
"17/06/24","17:40",0.0,28.1,55.7,995.6,8.2,1.0,2.1,354.5,0.03,18.5,26.7,"17:36:16",1
"17/06/24","17:50",0.0,28.0,57.0,996.0,349.7,0.8,2.2,359.9,0.03,18.7,26.6,"17:45:44",1
"17/06/24","18:00",0.0,27.7,59.5,996.3,340.9,1.2,2.4,318.0,0.01,19.1,26.4,"17:52:08",1
"17/06/24","18:10",0.0,27.3,60.2,996.7,341.8,1.0,2.0,348.8,0.00,19.0,26.4,"18:01:44",1
"17/06/24","18:20",0.0,27.1,61.1,996.5,309.6,0.3,0.8,10.8,0.00,19.0,26.2,"18:12:32",1
"17/06/24","18:30",0.0,26.8,63.3,996.7,288.0,0.5,1.0,318.6,0.00,19.3,26.2,"18:27:52",1
"17/06/24","18:40",0.0,26.4,65.5,996.7,317.1,0.7,1.0,297.1,0.00,19.5,26.2,"18:33:12",1
"17/06/24","18:50",0.0,26.2,67.1,996.5,332.7,1.1,1.6,339.8,0.00,19.7,26.1,"18:46:56",1
"17/06/24","19:00",0.0,25.9,67.1,996.7,298.7,1.1,1.8,336.5,0.00,19.4,25.9,"18:52:16",1
"17/06/24","19:10",0.0,25.8,67.8,997.0,281.5,0.7,1.8,338.8,0.00,19.4,25.7,"19:09:52",1
"17/06/24","19:20",0.0,25.8,67.4,996.7,350.9,1.0,2.1,187.9,0.00,19.3,25.7,"19:18:48",1
"17/06/24","19:30",0.0,26.0,66.6,997.0,219.9,1.0,2.1,229.7,0.00,19.3,25.5,"19:25:52",1
"17/06/24","19:40",0.0,26.0,66.2,997.0,206.6,1.0,1.9,178.2,0.00,19.2,25.6,"19:32:24",1
"17/06/24","19:50",0.0,26.0,66.2,997.0,199.3,0.8,1.7,173.4,0.00,19.2,25.3,"19:48:08",1
"17/06/24","20:00",0.0,25.8,66.9,997.0,201.5,0.8,1.7,191.4,0.00,19.2,25.4,"19:55:28",1
"17/06/24","20:10",0.0,25.6,67.8,997.2,168.4,0.7,1.6,138.5,0.00,19.3,25.5,"20:02:00",1
"17/06/24","20:20",0.0,25.3,69.8,997.0,268.3,0.7,1.3,261.4,0.00,19.4,25.2,"20:14:00",1
"17/06/24","20:30",0.0,24.9,71.4,997.7,258.0,0.8,1.7,243.3,0.00,19.4,25.2,"20:29:04",1
"17/06/24","20:40",0.0,24.8,72.9,998.2,287.6,1.0,1.3,262.5,0.00,19.7,24.9,"20:32:24",1
"17/06/24","20:50",0.0,24.6,73.3,997.7,326.4,1.7,2.8,335.1,0.00,19.5,25.0,"20:40:02",1
"17/06/24","21:00",0.0,24.5,73.7,997.9,333.5,1.5,2.6,332.6,0.00,19.5,25.1,"20:53:04",1
"17/06/24","21:10",0.0,24.5,73.5,998.2,329.4,1.2,1.9,335.8,0.00,19.5,24.9,"21:07:28",1
"17/06/24","21:20",0.0,24.6,72.8,998.2,323.6,1.1,2.1,333.5,0.00,19.4,24.5,"21:14:08",1
"17/06/24","21:30",0.0,24.7,73.0,998.4,319.5,0.8,1.8,337.8,0.00,19.6,24.8,"21:28:32",1
"17/06/24","21:40",0.0,24.8,73.4,998.6,341.0,1.2,1.9,323.9,0.00,19.8,24.8,"21:37:28",1
"17/06/24","21:50",0.0,24.6,73.0,998.4,330.3,1.2,1.8,334.5,0.00,19.5,24.7,"21:40:56",1
"17/06/24","22:00",0.0,24.6,72.5,998.2,333.4,1.0,2.1,342.5,0.00,19.4,24.6,"21:51:44",1
"17/06/24","22:10",0.0,24.6,73.9,998.2,336.7,1.0,1.6,334.1,0.00,19.7,24.5,"22:06:08",1
"17/06/24","22:20",0.0,24.4,74.8,997.9,259.5,0.5,1.1,352.3,0.00,19.7,24.7,"22:10:24",1
"17/06/24","22:30",0.0,24.2,77.5,997.9,297.0,1.0,1.6,325.8,0.00,20.1,24.5,"22:27:52",1
"17/06/24","22:40",0.0,23.9,78.8,997.9,316.5,0.8,1.9,345.0,0.00,20.0,24.4,"22:37:44",1
"17/06/24","22:50",0.0,23.6,80.3,997.7,282.7,0.5,1.1,196.4,0.00,20.0,24.3,"22:41:20",1
"17/06/24","23:00",0.0,23.2,82.0,998.2,273.9,0.8,1.8,304.6,0.00,20.0,24.2,"22:51:52",1
"17/06/24","23:10",0.0,22.9,84.3,997.4,331.3,0.7,1.1,358.3,0.00,20.2,24.3,"23:05:52",1
"17/06/24","23:20",0.0,22.6,85.3,997.7,292.7,0.7,1.3,154.3,0.00,20.0,24.2,"23:19:44",1
"17/06/24","23:30",0.0,22.3,87.0,997.4,187.8,0.7,1.3,203.3,0.00,20.1,24.1,"23:24:56",1
"17/06/24","23:40",0.0,22.3,88.1,997.7,217.6,0.5,1.2,199.8,0.00,20.3,24.0,"23:31:04",1
"17/06/24","23:50",0.0,22.1,88.5,997.7,200.9,0.8,1.7,209.3,0.00,20.2,24.0,"23:42:40",1
"17/06/24","24:00",0.0,22.0,88.9,997.7,169.2,0.7,1.6,195.8,0.00,20.1,23.9,"23:51:12",1
